North Windham, CT

10:40 PM EDT on July 29, 2016 (GMT -0400)
Windham

Weather History for KIJD - February, 2013

Change the Weather History Date:

Saturday, February 23, 2013

  Actual Average Record
Temperature  
Mean Temperature 35 °F -  
Max Temperature 37 °F 43 °F 58 °F (1990)
Min Temperature 33 °F 22 °F -10 °F (1972)
Degree Days  
Heating Degree Days 30    
Moisture  
Dew Point 28 °F    
Average Humidity 78    
Maximum Humidity 92    
Minimum Humidity 64    
Precipitation  
Precipitation 0.32 in - - ()
Sea Level Pressure  
Sea Level Pressure 30.13 in    
Wind  
Wind Speed 2 mph (ENE)    
Max Wind Speed 8 mph    
Max Gust Speed -    
Visibility 8 miles    
Events Rain , Snow    
Averages and records for this station are not official NWS values.
T = Trace of Precipitation, MM = Missing Value Source: NWS Daily Summary

Daily Weather History Graph

Daily Weather History Graph

Search for Another Location

Airport or City:

Trip Planner

Search our weather history database for the weather conditions in past years. The results will help you decide how hot, cold, wet, or windy it might be!

Date:

Astronomy

Feb. 23, 2013 Rise Set
Actual Time 6:32 AM EST 5:32 PM EST
Civil Twilight 6:04 AM EST 6:00 PM EST
Nautical Twilight 5:32 AM EST 6:32 PM EST
Astronomical Twilight 4:59 AM EST 7:04 PM EST
Moon 3:38 PM EST (2/23) 4:54 AM EST (2/23)
Length of Visible Light 11h 55m
Length of Day
10h 59m
Waxing Gibbous, 95% of the Moon is Illuminated
Feb 23
Waxing Gibbous
Feb 25
Full
Mar 4
Last Quarter
Mar 11
New
Mar 19
First Quarter

Hourly Weather History & Observations

Time (EST) Temp. Windchill Dew Point Humidity Pressure Visibility Wind Dir Wind Speed Gust Speed Precip Events Conditions
12:52 AM 33.1 °F - 21.9 °F 64% 30.31 in 10.0 mi Calm Calm - N/A   Overcast
1:52 AM 33.1 °F - 23.0 °F 66% 30.30 in 10.0 mi Calm Calm - N/A   Overcast
2:52 AM 33.1 °F - 23.0 °F 66% 30.28 in 10.0 mi Calm Calm - N/A   Overcast
3:52 AM 33.1 °F - 24.1 °F 70% 30.26 in 10.0 mi Calm Calm - N/A   Overcast
4:52 AM 33.1 °F - 24.1 °F 70% 30.25 in 10.0 mi Calm Calm - N/A   Overcast
5:52 AM 33.1 °F - 25.0 °F 72% 30.23 in 10.0 mi Calm Calm - N/A   Overcast
6:05 AM 33.8 °F 30.8 °F 24.8 °F 70% 30.22 in 10.0 mi East 3.5 mph - N/A   Overcast
6:52 AM 33.1 °F 30.0 °F 25.0 °F 72% 30.24 in 10.0 mi Variable 3.5 mph - N/A   Overcast
7:00 AM 33.8 °F 30.8 °F 24.8 °F 70% 30.23 in 10.0 mi Variable 3.5 mph - N/A   Overcast
7:33 AM 33.8 °F - 26.6 °F 75% 30.22 in 10.0 mi Calm Calm - N/A   Overcast
7:52 AM 34.0 °F - 26.1 °F 73% 30.23 in 10.0 mi Calm Calm - N/A   Overcast
8:52 AM 35.1 °F 32.2 °F 27.0 °F 72% 30.21 in 10.0 mi ENE 3.5 mph - N/A   Overcast
9:52 AM 36.0 °F - 30.0 °F 79% 30.20 in 6.0 mi Calm Calm - N/A   Haze
10:32 AM 35.6 °F 32.8 °F 30.2 °F 81% 30.17 in 5.0 mi Variable 3.5 mph - N/A   Haze
10:52 AM 36.0 °F 32.1 °F 30.9 °F 82% 30.17 in 4.0 mi Variable 4.6 mph - N/A   Haze
11:52 AM 37.0 °F 31.0 °F 30.9 °F 79% 30.14 in 10.0 mi ESE 8.1 mph - N/A   Overcast
12:52 PM 37.0 °F 31.6 °F 30.0 °F 76% 30.12 in 10.0 mi ESE 6.9 mph - N/A   Overcast
1:16 PM 37.4 °F - 30.2 °F 75% 30.11 in 10.0 mi Calm Calm - 0.00 in   Overcast
1:52 PM 37.0 °F 34.5 °F 30.9 °F 79% 30.11 in 7.0 mi Variable 3.5 mph - 0.00 in   Overcast
2:52 PM 37.9 °F 32.7 °F 30.0 °F 73% 30.09 in 5.0 mi SE 6.9 mph - 0.00 in Snow Light Snow
3:52 PM 36.0 °F - 30.9 °F 82% 30.07 in 9.0 mi Calm Calm - 0.00 in Rain Light Rain
4:12 PM 35.6 °F 31.7 °F 30.2 °F 81% 30.05 in 5.0 mi East 4.6 mph - 0.00 in Rain Light Rain
4:32 PM 35.6 °F 32.8 °F 30.2 °F 81% 30.05 in 2.5 mi East 3.5 mph - 0.01 in Snow Light Snow
4:40 PM 35.6 °F 30.7 °F 30.2 °F 81% 30.04 in 5.0 mi ENE 5.8 mph - 0.01 in Snow Light Snow
4:52 PM 35.1 °F 31.0 °F 30.9 °F 85% 30.05 in 10.0 mi ENE 4.6 mph - 0.02 in Rain Light Rain
5:52 PM 34.0 °F 31.0 °F 30.0 °F 85% 30.04 in 6.0 mi East 3.5 mph - 0.03 in Rain Light Rain
6:52 PM 34.0 °F 31.0 °F 30.0 °F 85% 30.01 in 5.0 mi ENE 3.5 mph - 0.07 in Rain Rain
7:52 PM 34.0 °F 29.8 °F 30.0 °F 85% 29.99 in 5.0 mi NE 4.6 mph - 0.10 in Rain Light Rain
8:52 PM 34.0 °F 29.8 °F 30.9 °F 89% 29.97 in 4.0 mi NE 4.6 mph - 0.08 in Rain Light Rain
9:52 PM 35.1 °F 30.1 °F 30.9 °F 85% 29.92 in 7.0 mi ENE 5.8 mph - 0.01 in   Overcast
10:52 PM 34.0 °F 29.8 °F 32.0 °F 92% 29.89 in 3.0 mi North 4.6 mph - 0.00 in Rain Light Rain
11:52 PM 34.0 °F 28.0 °F 30.9 °F 89% 29.86 in 4.0 mi NNE 6.9 mph - 0.01 in   Overcast